Home   Weather   Vevay   Past weeks

Flag for USA Past Weather in Vevay, Indiana, USA — Yesterday and Last 2 Weeks

Now
65 °F

Thunderstorms. Fog.


Feels Like: 65 °F
Forecast: 58 / 66 °F
Wind: 8 mph from North

Location: Cincinnati / Northern Kentucky International Airport

Current Time: May 24, 2017 at 5:24:01 pm

Latest Report: May 24, 2017 at 4:34 pm


Visibility: 6 mi

Pressure: 29.37 "Hg

Humidity: 94%

Dew Point: 63 °F

Location of VevayLocation

Past Weather in Vevay — Graph

°F

Vevay Temperature Yesterday

Maximum temperature yesterday: 74 °F (at 2:52 pm)
Minimum temperature yesterday: 52 °F (at 5:52 am)
Average temperature yesterday: 64 °F

High & Low Weather Summary for the Past Weeks

 TemperatureHumidityPressure
High84 °F (May 10, 3:52 pm)100% (May 10, 2:52 am)30.15 "Hg (May 10, 2:52 am)
Low46 °F (May 13, 6:52 am)37% (May 13, 6:52 pm)29.38 "Hg (May 24, 4:08 pm)
Average67 °F74%29.90 "Hg
* Reported May 9 4:06 pm — May 24 4:08 pm, Vevay. Weather by CustomWeather, © 2017

Note: Actual official high and low records may vary slightly from our data, if they occured in-between our weather recording intervals... More about our weather records

Advertising

Vevay Weather History for the Previous 24 Hours

Scroll right to see more
 ConditionsComfort  
Time TempWeatherWind HumidityBarometerVisibility
4:08 pm
Wed, May 24
65 °FThunderstorms. Fog.7 mph97%29.38 "Hg6 mi
3:09 pm65 °FFog.6 mph97%29.41 "Hg6 mi
2:52 pm64 °FLight rain. Mostly cloudy.3 mph94%29.39 "Hg7 mi
2:17 pm64 °FRain. Fog.3 mph94%29.43 "Hg2 mi
1:52 pm64 °FThunderstorms. Fog.5 mph90%29.41 "Hg3 mi
1:33 pm64 °FLight rain. Fog.10 mph90%29.44 "Hg3 mi
1:22 pm66 °FLight rain. Mostly cloudy.13 mph81%29.45 "Hg5 mi
12:52 pm66 °FCloudy.10 mph84%29.44 "Hg10 mi
11:52 am64 °FOvercast.8 mph87%29.45 "Hg10 mi
10:52 am63 °FLight rain. Mostly cloudy.7 mph90%29.48 "Hg8 mi
10:39 am64 °FLight rain. Overcast.8 mph87%29.51 "Hg8 mi
9:52 am63 °FLow clouds.12 mph90%29.50 "Hg8 mi
9:02 am63 °FMostly cloudy.10 mph90%29.52 "Hg10 mi
8:36 am62 °FCloudy.8 mph90%29.52 "Hg10 mi
8:02 am61 °FMostly cloudy.7 mph93%29.54 "Hg10 mi
7:52 am61 °FMore clouds than sun.8 mph93%29.52 "Hg9 mi
6:52 am60 °FMore clouds than sun.7 mph93%29.51 "Hg10 mi
5:52 am60 °FPassing clouds.5 mph93%29.53 "Hg10 mi
4:52 am60 °FPartly cloudy.5 mph93%29.53 "Hg10 mi
3:52 am61 °FPartly cloudy.5 mph90%29.54 "Hg10 mi
2:52 am62 °FMostly cloudy.5 mph90%29.57 "Hg10 mi
1:52 am63 °FMostly cloudy.6 mph84%29.58 "Hg10 mi
12:52 am65 °FOvercast.12 mph81%29.61 "Hg10 mi
11:52 pm
Tue, May 23
66 °FOvercast.10 mph78%29.61 "Hg10 mi
10:52 pm67 °FOvercast.13 mph71%29.62 "Hg10 mi
9:52 pm68 °FMostly cloudy.8 mph61%29.62 "Hg10 mi
8:52 pm69 °FPassing clouds.8 mph59%29.63 "Hg10 mi
7:52 pm72 °FMostly cloudy.3 mph53%29.64 "Hg10 mi
6:52 pm72 °FMostly cloudy.No wind52%29.64 "Hg10 mi
5:52 pm73 °FOvercast.5 mph43%29.66 "Hg10 mi
Weather by CustomWeather, © 2017

See weather overviewHow to use our weather pages